Вернуться в каталог

CZ-6A DEB

АктивенPO
NORAD 54614·DEBRIS·🇨🇳 China

Запущен Nov 11, 2022 с Taiyuan Satellite Launch Center

Loading…

Ближайшие Пролёты (ближайшие 24 часа)

TLE

СвежийSource: Space-Track

Эпоха: Sep 14, 2026, 05:29 UTC

1 54614U 22151NQ  26257.22895812  .00075481  00000-0  33767-2 0  9993
2 54614  98.6289 359.2342 0028462 273.0618  86.7357 15.20621523133304

Отслеживайте CZ-6A DEB в реальном времени с AllMySat

Download on the App Store